Regional Weather Roundup
Issued by NWS Bismarck, ND

Home | Current Version | Previous Version | Text Only | Print | Product List | Glossary On
Versions: 1 2 3 4 5 6 7 8 9 10 11 12 13 14 15 16 17 18 19 20 21 22 23 24 25 26 27 28 29 30 31 32 33 34 35 36 37 38 39 40 41 42 43 44 45 46 47 48 49 50
000
ASUS43 KBIS 281602
RWRBIS

NWR BROADCAST TEXT
NATIONAL WEATHER SERVICE BISMARCK ND
1100 AM CDT SAT MAY 28 2016

NOTE: "FAIR" INDICATES FEW OR NO CLOUDS BELOW 12,000 FEET WITH NO
SIGNIFICANT WEATHER AND/OR OBSTRUCTIONS TO VISIBILITY.


CITY           SKY/WX    TMP DP  RH WIND       PRES   REMARKS
WILLISTON      CLOUDY    60  52  74 E9        29.90R
MINOT          CLOUDY    61  53  75 N5        29.90S
MINOT AFB      CLOUDY    57  52  84 N3        29.90S
BISMARCK       CLOUDY    66  56  70 NE7       29.88F
DICKINSON      SUNNY     64  48  56 VRB6      29.87S
GARRISON         N/A     60  53  77 E7        29.89S
HETTINGER ARPT SUNNY     67  46  47 CALM      29.89S
JAMESTOWN      CLOUDY    62  58  86 N10       29.86R
CARRINGTON     CLOUDY    59  54  82 N9        29.90S
HAZEN          CLOUDY    61  55  82 NE5       29.91S
MANDAN         FAIR      63  55  77 NE7       29.89S
OAKES            N/A    N/A N/A N/A MISG        N/A
STANLEY        CLOUDY    54  54 100 E8        29.94S
$$

CITY           SKY/WX    TMP DP  RH WIND       PRES   REMARKS
GRAND FORKS    PTSUNNY   71  55  56 NE8       29.83S
GRAND FORKS AF PTSUNNY   69  55  59 NE10      29.84S
DEVILS LAKE    CLOUDY    59  56  89 N8        29.89S
FARGO          CLOUDY    69  57  65 N10       29.81S
CAVALIER       PTSUNNY   64  59  82 N3        29.87S
GRAFTON        FAIR      68  59  73 NE6       29.87S
GWINNER        PTSUNNY   64  61  88 N10       29.83S
LANGDON        CLOUDY    59  59 100 NE6       29.89S FOG
$$

CITY           SKY/WX    TMP DP  RH WIND       PRES   REMARKS
ABERDEEN       CLOUDY    64  59  83 NE9       29.83S
MOBRIDGE       CLOUDY    67  55  65 N9        29.83S
BUFFALO          N/A     68  47  46 NW5       29.83F
RAPID CITY     SUNNY     66  46  48 VRB5      29.91S
GLASGOW        LGT RAIN  53  52  96 NW10      29.90R
SIDNEY         PTSUNNY   62  53  72 CALM      29.88S
WOLF POINT     CLOUDY    61  53  75 S6        29.89R
GLENDIVE       MOSUNNY   64  54  68 SW6       29.91S
MILES CITY     CLOUDY    57  51  80 W10       29.93S
BAKER          MOSUNNY   66  48  52 W9        29.90S
$$

CITY           SKY/WX    TMP DP  RH WIND       PRES   REMARKS
BILLINGS       PTSUNNY   55  42  61 SW5       29.99S
GREAT FALLS    MOSUNNY   54  30  40 W18G32    29.98S
REGINA         CLOUDY    55  48  76 E13G20    29.94R
$$





USA.gov is the U.S. government's official web portal to all federal, state and local government web resources and services.